Provo, UT

12:34 AM MST on November 13, 2019 (GMT -0700)
Provo Municipal

Weather History for KPVU - September, 2019

Change the Weather History Date:

Wednesday, September 25, 2019

  Actual Average Record
Temperature  
Mean Temperature 62 °F -  
Max Temperature 75 °F 71 °F 91 °F (2015)
Min Temperature 48 °F 44 °F 33 °F (2007)
Degree Days  
Heating Degree Days 4    
Growing Degree Days 12 (Base 50)    
Moisture  
Dew Point 46 °F    
Average Humidity 60    
Maximum Humidity 83    
Minimum Humidity 32    
Precipitation  
Precipitation 0.00 in - - ()
Sea Level Pressure  
Sea Level Pressure 30.03 in    
Wind  
Wind Speed 4 mph (NNW)    
Max Wind Speed 13 mph    
Max Gust Speed -    
Visibility 10 miles    
Events      
Averages and records for this station are not official NWS values.
T = Trace of Precipitation, MM = Missing Value Source: NWS Daily Summary

Daily Weather History Graph

Daily Weather History Graph

Search for Another Location

Airport or City:

Astronomy

Sep. 25, 2019 Rise Set
Actual Time 7:17 AM MDT 7:19 PM MDT
Civil Twilight 6:50 AM MDT 7:46 PM MDT
Nautical Twilight 6:18 AM MDT 8:17 PM MDT
Astronomical Twilight 5:46 AM MDT 8:49 PM MDT
Moon 3:14 AM MDT (9/25) 5:54 PM MDT (9/25)
Length of Visible Light 12h 56m
Length of Day
12h 02m
Waning Crescent, 13% of the Moon is Illuminated
Sep 25
Waning Crescent
Sep 28
New
Oct 5
First Quarter
Oct 13
Full
Oct 21
Last Quarter

Hourly Weather History & Observations

Time (MDT) Temp. Dew Point Humidity Pressure Visibility Wind Dir Wind Speed Gust Speed Precip Events Conditions
12:56 AM 57.0 °F 45.0 °F 64% 30.04 in 10.0 mi Calm Calm - N/A   Clear
1:56 AM 54.0 °F 46.0 °F 75% 30.03 in 10.0 mi NNW 4.6 mph - N/A   Clear
2:56 AM 51.1 °F 46.0 °F 83% 30.03 in 10.0 mi SSE 8.1 mph - N/A   Clear
3:56 AM 50.0 °F 43.0 °F 77% 30.02 in 10.0 mi Calm Calm - N/A   Clear
4:56 AM 48.0 °F 43.0 °F 83% 30.03 in 10.0 mi NNE 4.6 mph - N/A   Clear
5:56 AM 52.0 °F 43.0 °F 71% 30.03 in 10.0 mi Calm Calm - N/A   Clear
6:56 AM 50.0 °F 42.1 °F 74% 30.05 in 10.0 mi East 4.6 mph - N/A   Clear
7:56 AM 48.0 °F 41.0 °F 77% 30.08 in 10.0 mi SSE 4.6 mph - N/A   Clear
8:56 AM 55.0 °F 44.1 °F 67% 30.07 in 10.0 mi East 5.8 mph - N/A   Clear
9:56 AM 60.1 °F 43.0 °F 53% 30.09 in 10.0 mi East 3.5 mph - N/A   Partly Cloudy
10:56 AM 64.9 °F 43.0 °F 45% 30.08 in 10.0 mi Variable 4.6 mph - N/A   Clear
11:56 AM 66.9 °F 46.0 °F 47% 30.06 in 10.0 mi WSW 5.8 mph - N/A   Scattered Clouds
12:56 PM 69.1 °F 45.0 °F 42% 30.05 in 10.0 mi WNW 5.8 mph - N/A   Clear
1:56 PM 70.0 °F 46.9 °F 44% 30.02 in 9.0 mi West 6.9 mph - N/A   Clear
3:56 PM 73.9 °F 42.1 °F 32% 29.99 in 10.0 mi NW 8.1 mph - N/A   Clear
4:56 PM 75.9 °F 44.1 °F 32% 29.97 in 10.0 mi NNW 11.5 mph - N/A   Clear
5:56 PM 73.9 °F 48.9 °F 41% 29.97 in 10.0 mi NW 9.2 mph - N/A   Clear
6:56 PM 70.0 °F 48.9 °F 47% 29.98 in 10.0 mi NW 12.7 mph - N/A   Clear
7:56 PM 64.9 °F 53.1 °F 65% 30.00 in 10.0 mi NW 9.2 mph - N/A   Clear
8:56 PM 64.9 °F 48.9 °F 56% 30.00 in 10.0 mi NNW 12.7 mph - N/A   Clear
9:56 PM 64.0 °F 48.0 °F 56% 30.00 in 10.0 mi NNW 9.2 mph - N/A   Clear
10:56 PM 60.1 °F 48.0 °F 64% 30.01 in 10.0 mi Calm Calm - N/A   Clear
11:56 PM 57.0 °F 48.9 °F 74% 30.01 in 10.0 mi Calm Calm - N/A   Clear